Regional Weather Roundup
Issued by NWS

Home | Current Version | Previous Version | Graphics & Text | Print | Product List | Glossary On
Versions: 1 2 3 4 5 6 7 8 9 10 11 12 13 14 15 16 17 18 19 20 21 22 23 24 25 26 27 28 29 30 31 32 33 34 35 36 37 38 39 40 41 42 43 44 45 46 47 48 49 50
000
ASUS43 KBIS 220302
RWRND

NORTH DAKOTA REGIONAL WEATHER ROUNDUP
NATIONAL WEATHER SERVICE BISMARCK ND
900 PM CST TUE FEB 21 2017

NOTE: "FAIR" INDICATES FEW OR NO CLOUDS BELOW 12,000 FEET WITH NO
SIGNIFICANT WEATHER AND/OR OBSTRUCTIONS TO VISIBILITY.


NDZ001>003-009>011-017-220400-
NORTHWEST NORTH DAKOTA

CITY           SKY/WX    TMP DP  RH WIND       PRES   REMARKS
WILLISTON      CLOUDY    35  31  85 N9        29.68R FOG
MINOT          CLOUDY    34  32  92 NW9       29.65F
MINOT AFB      CLOUDY    31  30  97 N8        29.65F
$$

NDZ018>021-031>035-040>046-220400-
SOUTHWEST NORTH DAKOTA

CITY           SKY/WX    TMP DP  RH WIND       PRES   REMARKS
BISMARCK       LGT RAIN  39  37  92 VRB3      29.71R
DICKINSON      MOCLDY    39  36  89 N9        29.63R
GARRISON         N/A     37  35  92 NE3       29.62F
HETTINGER ARPT PTCLDY    38  36  92 SE8       29.68F
$$

NDZ004>008-012>016-024-026-027-054-220400-
NORTHEAST NORTH DAKOTA

CITY           SKY/WX    TMP DP  RH WIND       PRES   REMARKS
GRAND FORKS    LGT RAIN  33  30  88 N6        29.69S VSB 1/2
GRND FRKS AFB  MOCLDY    32  32 100 N3        29.70S FOG
DEVILS LAKE    CLOUDY    34  32  92 CALM      29.66F
$$

NDZ022-023-025-028>030-036>039-047>053-220400-
SOUTHEAST NORTH DAKOTA

CITY           SKY/WX    TMP DP  RH WIND       PRES   REMARKS
FARGO          PTCLDY    36  35  96 NE6       29.66F
JAMESTOWN      CLOUDY    35  33  92 S5        29.68F
$$





USA.gov is the U.S. government's official web portal to all federal, state and local government web resources and services.